Tracking 30070 objects as of 15-Jan-2025
HD Live streaming from Space Station
objects crossing your sky now

CZ-4B R/B

Track CZ-4B R/B now!
10-day predictions


NORAD ID: 38039
Int'l Code: 2011-079B
Perigee: 453.0 km
Apogee: 650.3 km
Inclination: 98.4 °
Period: 95.5 minutes
Semi major axis: 6922 km
RCS: 9.5146 m2 (large)
Launch date: December 22, 2011
Source: People's Republic of China (PRC)
Launch site: Taiyaun Space Center, China (TSC)

Note: This is a ROCKET BODY
Your satellite tracking list
Your tracking list is empty




NASA's NSSDC Master Catalog

Two Line Element Set (TLE):
1 38039U 11079B   25015.34890885  .00006755  00000-0  35903-3 0  9995
2 38039  98.4264 154.1342 0142471 302.2591  56.4894 15.07283796711574
Source of the keplerian elements: AFSPC